Year,Month,Day,Hour,Minute,Value (Times are PST for temperature in C)
2015,06,27,00,00,16.70
2015,06,27,00,01,16.70
2015,06,27,00,02,16.70
2015,06,27,00,03,16.70
2015,06,27,00,04,16.70
2015,06,27,00,05,16.70
2015,06,27,00,06,16.70
2015,06,27,00,07,16.70
2015,06,27,00,08,16.70
2015,06,27,00,09,16.60
2015,06,27,00,10,16.60
2015,06,27,00,11,16.60
2015,06,27,00,12,16.60
2015,06,27,00,13,16.50
2015,06,27,00,14,16.60
2015,06,27,00,15,16.60
2015,06,27,00,16,16.70
2015,06,27,00,17,16.70
2015,06,27,00,18,16.80
2015,06,27,00,19,16.90
2015,06,27,00,20,16.90
2015,06,27,00,21,17.00
2015,06,27,00,22,17.00
2015,06,27,00,23,17.10
2015,06,27,00,24,17.20
2015,06,27,00,25,17.20
2015,06,27,00,26,17.30
2015,06,27,00,27,17.30
2015,06,27,00,28,17.30
2015,06,27,00,29,17.40
2015,06,27,00,30,17.40
2015,06,27,00,31,17.40
2015,06,27,00,32,17.50
2015,06,27,00,33,17.50
2015,06,27,00,34,17.50
2015,06,27,00,35,17.60
2015,06,27,00,36,17.60
2015,06,27,00,37,17.60
2015,06,27,00,38,17.60
2015,06,27,00,39,17.70
2015,06,27,00,40,17.70
2015,06,27,00,41,17.70
2015,06,27,00,42,17.70
2015,06,27,00,43,17.70
2015,06,27,00,44,17.70
2015,06,27,00,45,17.70
2015,06,27,00,46,17.70
2015,06,27,00,47,17.70
2015,06,27,00,48,17.70
2015,06,27,00,49,17.70
2015,06,27,00,50,17.70
2015,06,27,00,51,17.70
2015,06,27,00,52,17.70
2015,06,27,00,53,17.70
2015,06,27,00,54,17.70
2015,06,27,00,55,17.70
2015,06,27,00,56,17.70
2015,06,27,00,57,17.70
2015,06,27,00,58,17.70
2015,06,27,00,59,17.70
2015,06,27,01,00,17.70
2015,06,27,01,01,17.60
2015,06,27,01,02,17.60
2015,06,27,01,03,17.60
2015,06,27,01,04,17.60
2015,06,27,01,05,17.50
2015,06,27,01,06,17.50
2015,06,27,01,07,17.50
2015,06,27,01,08,17.40
2015,06,27,01,09,17.30
2015,06,27,01,10,17.20
2015,06,27,01,11,17.10
2015,06,27,01,12,17.00
2015,06,27,01,13,16.90
2015,06,27,01,14,16.90
2015,06,27,01,15,16.90
2015,06,27,01,16,16.80
2015,06,27,01,17,16.80
2015,06,27,01,18,16.80
2015,06,27,01,19,16.70
2015,06,27,01,20,16.50
2015,06,27,01,21,16.40
2015,06,27,01,22,16.30
2015,06,27,01,23,16.20
2015,06,27,01,24,16.00
2015,06,27,01,25,15.90
2015,06,27,01,26,15.70
2015,06,27,01,27,15.50
2015,06,27,01,28,15.40
2015,06,27,01,29,15.20
2015,06,27,01,30,15.10
2015,06,27,01,31,15.10
2015,06,27,01,32,15.00
2015,06,27,01,33,14.90
2015,06,27,01,34,14.90
2015,06,27,01,35,14.80
2015,06,27,01,36,14.80
2015,06,27,01,37,14.80
2015,06,27,01,38,14.80
2015,06,27,01,39,14.80
2015,06,27,01,40,14.80
2015,06,27,01,41,14.80
2015,06,27,01,42,14.80
2015,06,27,01,43,14.80
2015,06,27,01,44,14.80
2015,06,27,01,45,14.80
2015,06,27,01,46,14.70
2015,06,27,01,47,14.70
2015,06,27,01,48,14.70
2015,06,27,01,49,14.70
2015,06,27,01,50,14.70
2015,06,27,01,51,14.70
2015,06,27,01,52,14.70
2015,06,27,01,53,14.70
2015,06,27,01,54,14.70
2015,06,27,01,55,14.70
2015,06,27,01,56,14.70
2015,06,27,01,57,14.70
2015,06,27,01,58,14.70
2015,06,27,01,59,14.60
2015,06,27,02,00,14.60
2015,06,27,02,01,14.60
2015,06,27,02,02,14.60
2015,06,27,02,03,14.60
2015,06,27,02,04,14.60
2015,06,27,02,05,14.60
2015,06,27,02,06,14.60
2015,06,27,02,07,14.60
2015,06,27,02,08,14.60
2015,06,27,02,09,14.60
2015,06,27,02,10,14.60
2015,06,27,02,11,14.70
2015,06,27,02,12,14.70
2015,06,27,02,13,14.70
2015,06,27,02,14,14.70
2015,06,27,02,15,14.80
2015,06,27,02,16,14.80
2015,06,27,02,17,14.80
2015,06,27,02,18,14.80
2015,06,27,02,19,14.80
2015,06,27,02,20,14.80
2015,06,27,02,21,14.80
2015,06,27,02,22,14.80
2015,06,27,02,23,14.80
2015,06,27,02,24,14.80
2015,06,27,02,25,14.80
2015,06,27,02,26,14.80
2015,06,27,02,27,14.80
2015,06,27,02,28,14.80
2015,06,27,02,29,14.80
2015,06,27,02,30,14.70
2015,06,27,02,31,14.70
2015,06,27,02,32,14.60
2015,06,27,02,33,14.60
2015,06,27,02,34,14.50
2015,06,27,02,35,14.50
2015,06,27,02,36,14.50
2015,06,27,02,37,14.40
2015,06,27,02,38,14.40
2015,06,27,02,39,14.40
2015,06,27,02,40,14.40
2015,06,27,02,41,14.30
2015,06,27,02,42,14.30
2015,06,27,02,43,14.30
2015,06,27,02,44,14.30
2015,06,27,02,45,14.30
2015,06,27,02,46,14.20
2015,06,27,02,47,14.20
2015,06,27,02,48,14.20
2015,06,27,02,49,14.20
2015,06,27,02,50,14.20
2015,06,27,02,51,14.20
2015,06,27,02,52,14.20
2015,06,27,02,53,14.20
2015,06,27,02,54,14.20
2015,06,27,02,55,14.20
2015,06,27,02,56,14.20
2015,06,27,02,57,14.20
2015,06,27,02,58,14.20
2015,06,27,02,59,14.20
2015,06,27,03,00,14.20
2015,06,27,03,01,14.20
2015,06,27,03,02,14.20
2015,06,27,03,03,14.20
2015,06,27,03,04,14.20
2015,06,27,03,05,14.20
2015,06,27,03,06,14.20
2015,06,27,03,07,14.10
2015,06,27,03,08,14.10
2015,06,27,03,09,14.10
2015,06,27,03,10,14.10
2015,06,27,03,11,14.10
2015,06,27,03,12,14.10
2015,06,27,03,13,14.10
2015,06,27,03,14,14.10
2015,06,27,03,15,14.10
2015,06,27,03,16,14.10
2015,06,27,03,17,14.10
2015,06,27,03,18,14.10
2015,06,27,03,19,14.10
2015,06,27,03,20,14.10
2015,06,27,03,21,14.20
2015,06,27,03,22,14.20
2015,06,27,03,23,14.20
2015,06,27,03,24,14.20
2015,06,27,03,25,14.20
2015,06,27,03,26,14.20
2015,06,27,03,27,14.20
2015,06,27,03,28,14.20
2015,06,27,03,29,14.20
2015,06,27,03,30,14.20
2015,06,27,03,31,14.20
2015,06,27,03,32,14.20
2015,06,27,03,33,14.20
2015,06,27,03,34,14.20
2015,06,27,03,35,14.20
2015,06,27,03,36,14.20
2015,06,27,03,37,14.20
2015,06,27,03,38,14.20
2015,06,27,03,39,14.20
2015,06,27,03,40,14.20
2015,06,27,03,41,14.10
2015,06,27,03,42,14.10
2015,06,27,03,43,14.10
2015,06,27,03,44,14.10
2015,06,27,03,45,14.10
2015,06,27,03,46,14.10
2015,06,27,03,47,14.10
2015,06,27,03,48,14.10
2015,06,27,03,49,14.20
2015,06,27,03,50,14.20
2015,06,27,03,51,14.20
2015,06,27,03,52,14.20
2015,06,27,03,53,14.20
2015,06,27,03,54,14.10
2015,06,27,03,55,14.10
2015,06,27,03,56,14.10
2015,06,27,03,57,14.10
2015,06,27,03,58,14.10
2015,06,27,03,59,14.10
2015,06,27,04,00,14.10
2015,06,27,04,01,14.10
2015,06,27,04,02,14.00
2015,06,27,04,03,14.00
2015,06,27,04,04,14.00
2015,06,27,04,05,14.00
2015,06,27,04,06,13.90
2015,06,27,04,07,13.90
2015,06,27,04,08,13.90
2015,06,27,04,09,13.90
2015,06,27,04,10,13.80
2015,06,27,04,11,13.80
2015,06,27,04,12,13.80
2015,06,27,04,13,13.80
2015,06,27,04,14,13.80
2015,06,27,04,15,13.70
2015,06,27,04,16,13.70
2015,06,27,04,17,13.70
2015,06,27,04,18,13.70
2015,06,27,04,19,13.70
2015,06,27,04,20,13.70
2015,06,27,04,21,13.70
2015,06,27,04,22,13.70
2015,06,27,04,23,13.70
2015,06,27,04,24,13.70
2015,06,27,04,25,13.70
2015,06,27,04,26,13.70
2015,06,27,04,27,13.70
2015,06,27,04,28,13.70
2015,06,27,04,29,13.70
2015,06,27,04,30,13.70
2015,06,27,04,31,13.70
2015,06,27,04,32,13.70
2015,06,27,04,33,13.70
2015,06,27,04,34,13.70
2015,06,27,04,35,13.70
2015,06,27,04,36,13.70
2015,06,27,04,37,13.70
2015,06,27,04,38,13.70
2015,06,27,04,39,13.70
2015,06,27,04,40,13.70
2015,06,27,04,41,13.70
2015,06,27,04,42,13.70
2015,06,27,04,43,13.70
2015,06,27,04,44,13.70
2015,06,27,04,45,13.70
2015,06,27,04,46,13.70
2015,06,27,04,47,13.70
2015,06,27,04,48,13.70
2015,06,27,04,49,13.70
2015,06,27,04,50,13.70
2015,06,27,04,51,13.70
2015,06,27,04,52,13.70
2015,06,27,04,53,13.70
2015,06,27,04,54,13.70
2015,06,27,04,55,13.70
2015,06,27,04,56,13.70
2015,06,27,04,57,13.70
2015,06,27,04,58,13.70
2015,06,27,04,59,13.70
2015,06,27,05,00,13.70
2015,06,27,05,01,13.70
2015,06,27,05,02,13.70
2015,06,27,05,03,13.70
2015,06,27,05,04,13.70
2015,06,27,05,05,13.70
2015,06,27,05,06,13.70
2015,06,27,05,07,13.60
2015,06,27,05,08,13.60
2015,06,27,05,09,13.60
2015,06,27,05,10,13.60
2015,06,27,05,11,13.60
2015,06,27,05,12,13.60
2015,06,27,05,13,13.60
2015,06,27,05,14,13.60
2015,06,27,05,15,13.60
2015,06,27,05,16,13.60
2015,06,27,05,17,13.60
2015,06,27,05,18,13.60
2015,06,27,05,19,13.60
2015,06,27,05,20,13.60
2015,06,27,05,21,13.60
2015,06,27,05,22,13.60
2015,06,27,05,23,13.60
2015,06,27,05,24,13.60
2015,06,27,05,25,13.60
2015,06,27,05,26,13.60
2015,06,27,05,27,13.60
2015,06,27,05,28,13.60
2015,06,27,05,29,13.60
2015,06,27,05,30,13.60
2015,06,27,05,31,13.60
2015,06,27,05,32,13.60
2015,06,27,05,33,13.60
2015,06,27,05,34,13.60
2015,06,27,05,35,13.60
2015,06,27,05,36,13.70
2015,06,27,05,37,13.70
2015,06,27,05,38,13.70
2015,06,27,05,39,13.70
2015,06,27,05,40,13.70
2015,06,27,05,41,13.70
2015,06,27,05,42,13.70
2015,06,27,05,43,13.70
2015,06,27,05,44,13.70
2015,06,27,05,45,13.70
2015,06,27,05,46,13.70
2015,06,27,05,47,13.70
2015,06,27,05,48,13.70
2015,06,27,05,49,13.70
2015,06,27,05,50,13.70
2015,06,27,05,51,13.70
2015,06,27,05,52,13.70
2015,06,27,05,53,13.70
2015,06,27,05,54,13.70
2015,06,27,05,55,13.70
2015,06,27,05,56,13.70
2015,06,27,05,57,13.70
2015,06,27,05,58,13.70
2015,06,27,05,59,13.70
2015,06,27,06,00,13.70
2015,06,27,06,01,13.80
2015,06,27,06,02,13.80
2015,06,27,06,03,13.80
2015,06,27,06,04,13.80
2015,06,27,06,05,13.80
2015,06,27,06,06,13.80
2015,06,27,06,07,13.80
2015,06,27,06,08,13.90
2015,06,27,06,09,13.90
2015,06,27,06,10,13.90
2015,06,27,06,11,13.90
2015,06,27,06,12,13.90
2015,06,27,06,13,14.00
2015,06,27,06,14,14.00
2015,06,27,06,15,14.00
2015,06,27,06,16,14.10
2015,06,27,06,17,14.10
2015,06,27,06,18,14.10
2015,06,27,06,19,14.20
2015,06,27,06,20,14.20
2015,06,27,06,21,14.20
2015,06,27,06,22,14.30
2015,06,27,06,23,14.40
2015,06,27,06,24,14.50
2015,06,27,06,25,14.50
2015,06,27,06,26,14.60
2015,06,27,06,27,14.70
2015,06,27,06,28,14.80
2015,06,27,06,29,14.80
2015,06,27,06,30,14.80
2015,06,27,06,31,14.80
2015,06,27,06,32,14.80
2015,06,27,06,33,14.80
2015,06,27,06,34,14.90
2015,06,27,06,35,14.90
2015,06,27,06,36,14.90
2015,06,27,06,37,14.90
2015,06,27,06,38,15.00
2015,06,27,06,39,15.00
2015,06,27,06,40,15.10
2015,06,27,06,41,15.10
2015,06,27,06,42,15.20
2015,06,27,06,43,15.20
2015,06,27,06,44,15.30
2015,06,27,06,45,15.40
2015,06,27,06,46,15.50
2015,06,27,06,47,15.50
2015,06,27,06,48,15.60
2015,06,27,06,49,15.60
2015,06,27,06,50,15.70
2015,06,27,06,51,15.70
2015,06,27,06,52,15.70
2015,06,27,06,53,15.70
2015,06,27,06,54,15.70
2015,06,27,06,55,15.80
2015,06,27,06,56,15.80
2015,06,27,06,57,15.80
2015,06,27,06,58,15.80
2015,06,27,06,59,15.80
2015,06,27,07,00,15.90
2015,06,27,07,01,15.90
2015,06,27,07,02,15.90
2015,06,27,07,03,16.00
2015,06,27,07,04,16.10
2015,06,27,07,05,16.10
2015,06,27,07,06,16.10
2015,06,27,07,07,16.10
2015,06,27,07,08,16.10
2015,06,27,07,09,16.10
2015,06,27,07,10,16.20
2015,06,27,07,11,16.20
2015,06,27,07,12,16.20
2015,06,27,07,13,16.20
2015,06,27,07,14,16.20
2015,06,27,07,15,16.20
2015,06,27,07,16,16.30
2015,06,27,07,17,16.30
2015,06,27,07,18,16.30
2015,06,27,07,19,16.40
2015,06,27,07,20,16.40
2015,06,27,07,21,16.40
2015,06,27,07,22,16.50
2015,06,27,07,23,16.60
2015,06,27,07,24,16.60
2015,06,27,07,25,16.70
2015,06,27,07,26,16.70
2015,06,27,07,27,16.80
2015,06,27,07,28,16.90
2015,06,27,07,29,16.90
2015,06,27,07,30,17.00
2015,06,27,07,31,17.00
2015,06,27,07,32,17.00
2015,06,27,07,33,17.00
2015,06,27,07,34,16.90
2015,06,27,07,35,16.90
2015,06,27,07,36,16.90
2015,06,27,07,37,16.90
2015,06,27,07,38,16.80
2015,06,27,07,39,16.80
2015,06,27,07,40,16.70
2015,06,27,07,41,16.70
2015,06,27,07,42,16.70
2015,06,27,07,43,16.60
2015,06,27,07,44,16.50
2015,06,27,07,45,16.40
2015,06,27,07,46,16.40
2015,06,27,07,47,16.40
2015,06,27,07,48,16.40
2015,06,27,07,49,16.40
2015,06,27,07,50,16.40
2015,06,27,07,51,16.50
2015,06,27,07,52,16.60
2015,06,27,07,53,16.70
2015,06,27,07,54,16.80
2015,06,27,07,55,16.90
2015,06,27,07,56,17.00
2015,06,27,07,57,17.10
2015,06,27,07,58,17.10
2015,06,27,07,59,17.20
2015,06,27,08,00,17.10
2015,06,27,08,01,17.00
2015,06,27,08,02,16.80
2015,06,27,08,03,16.60
2015,06,27,08,04,16.40
2015,06,27,08,05,16.30
2015,06,27,08,06,16.20
2015,06,27,08,07,16.00
2015,06,27,08,08,15.90
2015,06,27,08,09,15.80
2015,06,27,08,10,15.80
2015,06,27,08,11,15.80
2015,06,27,08,12,15.80
2015,06,27,08,13,15.80
2015,06,27,08,14,15.80
2015,06,27,08,15,15.80
2015,06,27,08,16,15.80
2015,06,27,08,17,15.80
2015,06,27,08,18,15.90
2015,06,27,08,19,15.90
2015,06,27,08,20,15.80
2015,06,27,08,21,15.80
2015,06,27,08,22,15.90
2015,06,27,08,23,16.00
2015,06,27,08,24,16.10
2015,06,27,08,25,16.20
2015,06,27,08,26,16.30
2015,06,27,08,27,16.50
2015,06,27,08,28,16.70
2015,06,27,08,29,16.90
2015,06,27,08,30,17.10
2015,06,27,08,31,17.30
2015,06,27,08,32,17.50
2015,06,27,08,33,17.70
2015,06,27,08,34,17.90
2015,06,27,08,35,18.00
2015,06,27,08,36,18.10
2015,06,27,08,37,18.20
2015,06,27,08,38,18.30
2015,06,27,08,39,18.30
2015,06,27,08,40,18.40
2015,06,27,08,41,18.50
2015,06,27,08,42,18.50
2015,06,27,08,43,18.50
2015,06,27,08,44,18.60
2015,06,27,08,45,18.60
2015,06,27,08,46,18.70
2015,06,27,08,47,18.70
2015,06,27,08,48,18.80
2015,06,27,08,49,18.90
2015,06,27,08,50,18.90
2015,06,27,08,51,19.10
2015,06,27,08,52,19.10
2015,06,27,08,53,19.20
2015,06,27,08,54,19.20
2015,06,27,08,55,19.10
2015,06,27,08,56,19.10
2015,06,27,08,57,18.90
2015,06,27,08,58,18.80
2015,06,27,08,59,18.70
2015,06,27,09,00,18.60
2015,06,27,09,01,18.50
2015,06,27,09,02,18.40
2015,06,27,09,03,18.30
2015,06,27,09,04,18.20
2015,06,27,09,05,18.10
2015,06,27,09,06,18.00
2015,06,27,09,07,17.90
2015,06,27,09,08,18.00
2015,06,27,09,09,18.10
2015,06,27,09,10,18.10
2015,06,27,09,11,18.10
2015,06,27,09,12,18.00
2015,06,27,09,13,17.90
2015,06,27,09,14,17.80
2015,06,27,09,15,17.70
2015,06,27,09,16,17.60
2015,06,27,09,17,17.60
2015,06,27,09,18,17.60
2015,06,27,09,19,17.70
2015,06,27,09,20,17.80
2015,06,27,09,21,17.80
2015,06,27,09,22,17.90
2015,06,27,09,23,17.80
2015,06,27,09,24,17.70
2015,06,27,09,25,17.60
2015,06,27,09,26,17.50
2015,06,27,09,27,17.40
2015,06,27,09,28,17.40
2015,06,27,09,29,17.30
2015,06,27,09,30,17.30
2015,06,27,09,31,17.10
2015,06,27,09,32,17.10
2015,06,27,09,33,17.10
2015,06,27,09,34,17.20
2015,06,27,09,35,17.20
2015,06,27,09,36,17.30
2015,06,27,09,37,17.50
2015,06,27,09,38,17.60
2015,06,27,09,39,17.60
2015,06,27,09,40,17.70
2015,06,27,09,41,17.70
2015,06,27,09,42,17.80
2015,06,27,09,43,17.70
2015,06,27,09,44,17.70
2015,06,27,09,45,17.70
2015,06,27,09,46,17.50
2015,06,27,09,47,17.50
2015,06,27,09,48,17.40
2015,06,27,09,49,17.40
2015,06,27,09,50,17.20
2015,06,27,09,51,17.10
2015,06,27,09,52,17.10
2015,06,27,09,53,17.00
2015,06,27,09,54,17.10
2015,06,27,09,55,17.10
2015,06,27,09,56,17.20
2015,06,27,09,57,17.20
2015,06,27,09,58,17.30
2015,06,27,09,59,17.30
2015,06,27,10,00,17.40
2015,06,27,10,01,17.40
2015,06,27,10,02,17.40
2015,06,27,10,03,17.30
2015,06,27,10,04,17.30
2015,06,27,10,05,17.20
2015,06,27,10,06,17.20
2015,06,27,10,07,17.30
2015,06,27,10,08,17.40
2015,06,27,10,09,17.40
2015,06,27,10,10,17.50
2015,06,27,10,11,17.50
2015,06,27,10,12,17.70
2015,06,27,10,13,17.80
2015,06,27,10,14,17.90
2015,06,27,10,15,18.10
2015,06,27,10,16,18.20
2015,06,27,10,17,18.40
2015,06,27,10,18,18.60
2015,06,27,10,19,18.70
2015,06,27,10,20,18.80
2015,06,27,10,21,19.00
2015,06,27,10,22,19.10
2015,06,27,10,23,19.10
2015,06,27,10,24,19.10
2015,06,27,10,25,19.20
2015,06,27,10,26,19.30
2015,06,27,10,27,19.40
2015,06,27,10,28,19.60
2015,06,27,10,29,19.70
2015,06,27,10,30,19.80
2015,06,27,10,31,19.90
2015,06,27,10,32,20.10
2015,06,27,10,33,20.20
2015,06,27,10,34,20.40
2015,06,27,10,35,20.50
2015,06,27,10,36,20.60
2015,06,27,10,37,20.70
2015,06,27,10,38,20.80
2015,06,27,10,39,20.80
2015,06,27,10,40,20.80
2015,06,27,10,41,20.80
2015,06,27,10,42,20.90
2015,06,27,10,43,20.90
2015,06,27,10,44,21.00
2015,06,27,10,45,21.00
2015,06,27,10,46,21.00
2015,06,27,10,47,21.00
2015,06,27,10,48,21.10
2015,06,27,10,49,21.20
2015,06,27,10,50,21.40
2015,06,27,10,51,21.40
2015,06,27,10,52,21.40
2015,06,27,10,53,21.40
2015,06,27,10,54,21.40
2015,06,27,10,55,21.30
2015,06,27,10,56,21.30
2015,06,27,10,57,21.30
2015,06,27,10,58,21.30
2015,06,27,10,59,21.30
2015,06,27,11,00,21.40
2015,06,27,11,01,21.40
2015,06,27,11,02,21.30
2015,06,27,11,03,21.30
2015,06,27,11,04,21.30
2015,06,27,11,05,21.30
2015,06,27,11,06,21.30
2015,06,27,11,07,21.30
2015,06,27,11,08,21.30
2015,06,27,11,09,21.30
2015,06,27,11,10,21.30
2015,06,27,11,11,21.40
2015,06,27,11,12,21.50
2015,06,27,11,13,21.60
2015,06,27,11,14,21.70
2015,06,27,11,15,21.70
2015,06,27,11,16,21.80
2015,06,27,11,17,21.70
2015,06,27,11,18,21.70
2015,06,27,11,19,21.70
2015,06,27,11,20,21.80
2015,06,27,11,21,21.80
2015,06,27,11,22,21.90
2015,06,27,11,23,21.80
2015,06,27,11,24,21.80
2015,06,27,11,25,21.80
2015,06,27,11,26,21.80
2015,06,27,11,27,21.90
2015,06,27,11,28,22.00
2015,06,27,11,29,22.20
2015,06,27,11,30,22.20
2015,06,27,11,31,22.30
2015,06,27,11,32,22.40
2015,06,27,11,33,22.30
2015,06,27,11,34,22.20
2015,06,27,11,35,21.90
2015,06,27,11,36,21.70
2015,06,27,11,37,21.50
2015,06,27,11,38,21.20
2015,06,27,11,39,21.00
2015,06,27,11,40,20.90
2015,06,27,11,41,20.80
2015,06,27,11,42,20.70
2015,06,27,11,43,20.70
2015,06,27,11,44,20.70
2015,06,27,11,45,20.70
2015,06,27,11,46,20.70
2015,06,27,11,47,20.80
2015,06,27,11,48,20.80
2015,06,27,11,49,20.90
2015,06,27,11,50,21.00
2015,06,27,11,51,21.10
2015,06,27,11,52,21.10
2015,06,27,11,53,21.20
2015,06,27,11,54,21.30
2015,06,27,11,55,21.40
2015,06,27,11,56,21.60
2015,06,27,11,57,21.70
2015,06,27,11,58,21.90
2015,06,27,11,59,22.10
2015,06,27,12,00,22.20
2015,06,27,12,01,22.30
2015,06,27,12,02,22.40
2015,06,27,12,03,22.50
2015,06,27,12,04,22.30
2015,06,27,12,05,22.20
2015,06,27,12,06,21.90
2015,06,27,12,07,21.70
2015,06,27,12,08,21.60
2015,06,27,12,09,21.60
2015,06,27,12,10,21.60
2015,06,27,12,11,21.50
2015,06,27,12,12,21.30
2015,06,27,12,13,21.10
2015,06,27,12,14,20.90
2015,06,27,12,15,20.80
2015,06,27,12,16,20.70
2015,06,27,12,17,20.60
2015,06,27,12,18,20.50
2015,06,27,12,19,20.40
2015,06,27,12,20,20.20
2015,06,27,12,21,20.20
2015,06,27,12,22,20.20
2015,06,27,12,23,20.20
2015,06,27,12,24,20.30
2015,06,27,12,25,20.50
2015,06,27,12,26,20.70
2015,06,27,12,27,21.00
2015,06,27,12,28,21.20
2015,06,27,12,29,21.40
2015,06,27,12,30,21.60
2015,06,27,12,31,21.90
2015,06,27,12,32,22.10
2015,06,27,12,33,22.30
2015,06,27,12,34,22.50
2015,06,27,12,35,22.60
2015,06,27,12,36,22.70
2015,06,27,12,37,22.80
2015,06,27,12,38,22.80
2015,06,27,12,39,22.80
2015,06,27,12,40,22.90
2015,06,27,12,41,22.90
2015,06,27,12,42,22.90
2015,06,27,12,43,22.90
2015,06,27,12,44,22.90
2015,06,27,12,45,22.90
2015,06,27,12,46,22.90
2015,06,27,12,47,22.90
2015,06,27,12,48,22.90
2015,06,27,12,49,22.90
2015,06,27,12,50,22.90
2015,06,27,12,51,22.90
2015,06,27,12,52,22.90
2015,06,27,12,53,22.90
2015,06,27,12,54,22.70
2015,06,27,12,55,22.60
2015,06,27,12,56,22.40
2015,06,27,12,57,22.10
2015,06,27,12,58,21.90
2015,06,27,12,59,21.60
2015,06,27,13,00,21.30
2015,06,27,13,01,21.10
2015,06,27,13,02,20.90
2015,06,27,13,03,20.90
2015,06,27,13,04,21.00
2015,06,27,13,05,21.20
2015,06,27,13,06,21.40
2015,06,27,13,07,21.70
2015,06,27,13,08,21.90
2015,06,27,13,09,22.00
2015,06,27,13,10,21.90
2015,06,27,13,11,21.60
2015,06,27,13,12,21.40
2015,06,27,13,13,21.30
2015,06,27,13,14,21.20
2015,06,27,13,15,21.20
2015,06,27,13,16,21.20
2015,06,27,13,17,21.30
2015,06,27,13,18,21.30
2015,06,27,13,19,21.30
2015,06,27,13,20,21.30
2015,06,27,13,21,21.30
2015,06,27,13,22,21.30
2015,06,27,13,23,21.30
2015,06,27,13,24,21.30
2015,06,27,13,25,21.40
2015,06,27,13,26,21.50
2015,06,27,13,27,21.60
2015,06,27,13,28,21.80
2015,06,27,13,29,22.00
2015,06,27,13,30,22.10
2015,06,27,13,31,22.30
2015,06,27,13,32,22.60
2015,06,27,13,33,22.90
2015,06,27,13,34,23.10
2015,06,27,13,35,23.30
2015,06,27,13,36,23.50
2015,06,27,13,37,23.70
2015,06,27,13,38,23.70
2015,06,27,13,39,23.80
2015,06,27,13,40,23.80
2015,06,27,13,41,23.80
2015,06,27,13,42,23.80
2015,06,27,13,43,23.80
2015,06,27,13,44,23.80
2015,06,27,13,45,23.90
2015,06,27,13,46,23.90
2015,06,27,13,47,24.10
2015,06,27,13,48,24.10
2015,06,27,13,49,24.30
2015,06,27,13,50,24.40
2015,06,27,13,51,24.50
2015,06,27,13,52,24.70
2015,06,27,13,53,24.80
2015,06,27,13,54,24.90
2015,06,27,13,55,25.00
2015,06,27,13,56,25.10
2015,06,27,13,57,25.20
2015,06,27,13,58,25.30
2015,06,27,13,59,25.30
2015,06,27,14,00,25.40
2015,06,27,14,01,25.40
2015,06,27,14,02,25.50
2015,06,27,14,03,25.50
2015,06,27,14,04,25.50
2015,06,27,14,05,25.60
2015,06,27,14,06,25.60
2015,06,27,14,07,25.70
2015,06,27,14,08,25.70
2015,06,27,14,09,25.80
2015,06,27,14,10,25.70
2015,06,27,14,11,25.70
2015,06,27,14,12,25.70
2015,06,27,14,13,25.60
2015,06,27,14,14,25.70
2015,06,27,14,15,25.70
2015,06,27,14,16,25.70
2015,06,27,14,17,25.70
2015,06,27,14,18,25.80
2015,06,27,14,19,25.80
2015,06,27,14,20,25.90
2015,06,27,14,21,26.00
2015,06,27,14,22,26.20
2015,06,27,14,23,26.30
2015,06,27,14,24,26.40
2015,06,27,14,25,26.40
2015,06,27,14,26,26.40
2015,06,27,14,27,26.50
2015,06,27,14,28,26.60
2015,06,27,14,29,26.60
2015,06,27,14,30,26.60
2015,06,27,14,31,26.60
2015,06,27,14,32,26.60
2015,06,27,14,33,26.70
2015,06,27,14,34,26.80
2015,06,27,14,35,26.90
2015,06,27,14,36,26.90
2015,06,27,14,37,27.00
2015,06,27,14,38,27.10
2015,06,27,14,39,27.10
2015,06,27,14,40,27.10
2015,06,27,14,41,27.20
2015,06,27,14,42,27.20
2015,06,27,14,43,27.20
2015,06,27,14,44,27.20
2015,06,27,14,45,27.20
2015,06,27,14,46,27.20
2015,06,27,14,47,27.20
2015,06,27,14,48,27.30
2015,06,27,14,49,27.30
2015,06,27,14,50,27.30
2015,06,27,14,51,27.30
2015,06,27,14,52,27.30
2015,06,27,14,53,27.30
2015,06,27,14,54,27.30
2015,06,27,14,55,27.30
2015,06,27,14,56,27.30
2015,06,27,14,57,27.30
2015,06,27,14,58,27.30
2015,06,27,14,59,27.30
2015,06,27,15,00,27.30
2015,06,27,15,01,27.30
2015,06,27,15,02,27.30
2015,06,27,15,03,27.50
2015,06,27,15,04,27.60
2015,06,27,15,05,27.70
2015,06,27,15,06,27.80
2015,06,27,15,07,27.70
2015,06,27,15,08,27.60
2015,06,27,15,09,27.40
2015,06,27,15,10,27.30
2015,06,27,15,11,27.00
2015,06,27,15,12,26.80
2015,06,27,15,13,26.70
2015,06,27,15,14,26.60
2015,06,27,15,15,26.50
2015,06,27,15,16,26.20
2015,06,27,15,17,25.90
2015,06,27,15,18,25.60
2015,06,27,15,19,25.30
2015,06,27,15,20,25.20
2015,06,27,15,21,25.30
2015,06,27,15,22,25.30
2015,06,27,15,23,25.40
2015,06,27,15,24,25.60
2015,06,27,15,25,25.60
2015,06,27,15,26,25.70
2015,06,27,15,27,25.70
2015,06,27,15,28,25.70
2015,06,27,15,29,25.70
2015,06,27,15,30,25.70
2015,06,27,15,31,25.60
2015,06,27,15,32,25.60
2015,06,27,15,33,25.60
2015,06,27,15,34,25.60
2015,06,27,15,35,25.50
2015,06,27,15,36,25.40
2015,06,27,15,37,25.40
2015,06,27,15,38,25.30
2015,06,27,15,39,25.20
2015,06,27,15,40,25.20
2015,06,27,15,41,25.20
2015,06,27,15,42,25.20
2015,06,27,15,43,25.20
2015,06,27,15,44,25.20
2015,06,27,15,45,25.20
2015,06,27,15,46,25.20
2015,06,27,15,47,25.20
2015,06,27,15,48,25.30
2015,06,27,15,49,25.30
2015,06,27,15,50,25.40
2015,06,27,15,51,25.40
2015,06,27,15,52,25.50
2015,06,27,15,53,25.50
2015,06,27,15,54,25.50
2015,06,27,15,55,25.50
2015,06,27,15,56,25.60
2015,06,27,15,57,25.70
2015,06,27,15,58,25.80
2015,06,27,15,59,25.90
2015,06,27,16,00,26.10
2015,06,27,16,01,26.20
2015,06,27,16,02,26.30
2015,06,27,16,03,26.40
2015,06,27,16,04,26.50
2015,06,27,16,05,26.60
2015,06,27,16,06,26.70
2015,06,27,16,07,26.70
2015,06,27,16,08,26.70
2015,06,27,16,09,26.70
2015,06,27,16,10,26.80
2015,06,27,16,11,26.80
2015,06,27,16,12,26.90
2015,06,27,16,13,26.90
2015,06,27,16,14,26.90
2015,06,27,16,15,26.80
2015,06,27,16,16,26.60
2015,06,27,16,17,26.60
2015,06,27,16,18,26.50
2015,06,27,16,19,26.30
2015,06,27,16,20,26.30
2015,06,27,16,21,26.20
2015,06,27,16,22,26.20
2015,06,27,16,23,26.30
2015,06,27,16,24,26.50
2015,06,27,16,25,26.60
2015,06,27,16,26,26.80
2015,06,27,16,27,26.90
2015,06,27,16,28,27.00
2015,06,27,16,29,27.20
2015,06,27,16,30,27.30
2015,06,27,16,31,27.40
2015,06,27,16,32,27.50
2015,06,27,16,33,27.70
2015,06,27,16,34,27.80
2015,06,27,16,35,28.00
2015,06,27,16,36,28.10
2015,06,27,16,37,28.30
2015,06,27,16,38,28.30
2015,06,27,16,39,28.40
2015,06,27,16,40,28.50
2015,06,27,16,41,28.60
2015,06,27,16,42,28.70
2015,06,27,16,43,28.80
2015,06,27,16,44,28.80
2015,06,27,16,45,28.90
2015,06,27,16,46,28.90
2015,06,27,16,47,28.90
2015,06,27,16,48,28.90
2015,06,27,16,49,28.90
2015,06,27,16,50,28.90
2015,06,27,16,51,28.90
2015,06,27,16,52,28.80
2015,06,27,16,53,28.70
2015,06,27,16,54,28.60
2015,06,27,16,55,28.50
2015,06,27,16,56,28.40
2015,06,27,16,57,28.30
2015,06,27,16,58,28.20
2015,06,27,16,59,28.00
2015,06,27,17,00,27.90
2015,06,27,17,01,27.70
2015,06,27,17,02,27.60
2015,06,27,17,03,27.60
2015,06,27,17,04,27.40
2015,06,27,17,05,27.40
2015,06,27,17,06,27.30
2015,06,27,17,07,27.30
2015,06,27,17,08,27.30
2015,06,27,17,09,27.30
2015,06,27,17,10,27.30
2015,06,27,17,11,27.30
2015,06,27,17,12,27.40
2015,06,27,17,13,27.50
2015,06,27,17,14,27.60
2015,06,27,17,15,27.60
2015,06,27,17,16,27.70
2015,06,27,17,17,27.80
2015,06,27,17,18,27.90
2015,06,27,17,19,27.90